Wind_Speed
19 23 23 20 20 22 24 24 26 28 28 28 26 24 23 22 21 19 18 15 15 13 12 13 11 10 8 10 11 11 12 13 12 12 11 10 11 12 11 11 12 12 14
20 22 22 23 23 24 24 24 26 26 25 25 23 22 21 20 19 18 15 14 12 11 11 12 10 9 8 10 9 9 10 11 11 11 10 10 8 10 12 12 11 13 13
24 25 24 24 24 24 25 25 24 23 23 22 21 20 19 18 16 15 13 11 11 10 10 10 9 8 7 8 8 8 7 8 9 9 9 10 9 11 16 12 13 12 13
27 25 24 23 24 25 25 25 23 21 22 20 19 18 17 16 14 13 11 10 10 10 9 8 7 6 5 7 8 8 7 8 7 5 8 10 7 10 14 14 13 13 12
27 26 23 24 23 24 24 24 22 21 20 19 17 16 15 14 12 11 10 9 9 10 8 7 5 4 5 6 8 7 8 10 7 9 11 8 9 11 14 14 13 13 13
28 26 23 23 22 23 22 21 20 19 17 16 15 13 13 12 11 10 9 9 8 8 7 6 5 4 6 7 8 8 12 11 12 15 12 9 12 11 11 15 13 12 12
29 26 24 24 23 23 21 20 19 17 15 14 13 12 11 10 9 8 8 8 7 7 5 5 6 6 7 8 10 10 11 9 8 11 9 10 11 12 12 12 14 13 13
31 27 24 23 23 23 20 19 18 16 14 13 13 11 9 9 7 7 7 7 6 6 5 4 5 7 7 9 10 8 7 9 8 12 11 10 12 13 13 13 14 14 12
29 28 24 23 21 20 20 19 18 16 13 13 12 10 8 7 6 5 4 6 5 5 5 5 6 7 9 11 11 9 6 7 4 12 12 14 12 12 12 13 14 13 12
29 28 26 24 22 21 19 18 17 16 14 13 12 9 7 6 5 5 3 2 4 3 5 6 6 7 8 10 7 2 4 4 3 8 10 14 13 13 13 13 12 13 13
29 28 26 25 24 22 21 18 17 16 14 14 11 9 7 5 4 2 1 1 4 3 5 6 6 7 8 3 3 6 0 2 2 5 7 12 12 13 12 13 14 13 12
26 29 28 27 26 24 22 20 19 18 16 14 11 10 9 4 3 4 2 1 3 4 5 4 4 4 6 6 3 2 3 3 2 7 3 11 11 13 13 13 13 14 14
33 31 30 29 28 26 25 22 20 19 16 15 14 11 9 5 5 6 4 2 4 2 2 4 4 2 3 4 6 8 5 9 8 7 8 9 11 11 15 15 15 14 13
30 33 31 31 30 28 25 23 21 20 19 17 16 13 9 7 6 9 4 3 4 2 2 3 1 2 3 4 4 7 7 6 8 9 10 8 7 8 11 16 16 17 16
32 33 34 33 33 30 28 26 23 21 21 18 16 15 13 10 10 8 4 4 3 3 3 1 3 0 3 3 8 4 4 6 7 11 9 7 6 6 10 11 15 16 16
35 37 37 35 34 32 29 26 23 22 20 18 18 15 17 14 9 8 6 3 2 4 4 2 1 2 1 3 3 2 4 4 8 8 9 8 6 3 6 10 12 14 15
36 40 42 38 35 33 29 27 20 23 19 21 22 20 19 15 11 9 7 4 2 3 7 3 0 1 3 4 4 3 3 2 7 6 6 7 7 6 3 7 9 8 11
34 37 41 38 36 33 30 28 17 9 18 18 15 23 22 17 12 8 7 7 4 3 3 2 2 1 4 3 3 4 7 3 9 7 6 4 7 9 7 2 5 7 7
37 39 42 38 37 37 31 30 22 16 14 12 14 19 21 18 13 10 7 8 6 8 5 4 2 1 2 1 1 3 1 8 7 8 6 7 5 4 10 6 4 4 6
37 42 44 41 39 39 33 29 26 20 17 13 12 14 17 20 17 12 11 9 9 8 6 5 6 0 0 5 1 1 3 5 7 9 11 9 10 10 8 8 7 6 4
37 39 41 38 42 40 36 30 25 23 23 19 15 17 17 18 17 16 13 9 9 9 7 7 5 2 1 3 2 4 5 4 7 14 13 12 12 12 11 8 6 5 5
41 40 40 43 44 44 39 33 29 26 22 22 19 20 18 19 20 19 17 15 13 9 7 9 4 5 3 1 2 2 3 4 8 11 11 13 13 9 11 7 5 4 6
37 42 43 47 47 45 40 35 30 26 23 22 18 19 19 19 23 20 17 15 14 12 13 12 7 8 5 4 3 3 2 2 1 6 9 13 13 9 7 6 4 6 7
40 43 44 43 47 46 43 38 35 29 25 28 26 20 21 26 25 20 18 14 13 15 16 14 10 10 8 8 6 4 4 5 3 0 3 7 7 7 7 6 5 5 6
40 41 45 47 46 44 44 41 39 35 33 28 27 26 21 27 25 21 19 17 16 15 18 16 13 12 11 9 9 10 10 7 4 3 2 3 8 9 10 8 11 7 7
38 40 41 43 43 44 43 43 42 38 35 28 26 22 21 26 27 24 22 19 19 17 19 16 15 14 13 11 8 12 8 4 5 4 2 1 3 7 14 12 14 15 12
Wind_Direction
137 140 138 134 133 129 128 125 120 119 118 116 115 114 114 111 109 109 107 101 93 92 87 81 78 81 84 90 99 98 101 93 91 89 84 96 109 113 121 117 113 109 111
144 146 139 139 133 133 132 128 122 118 117 115 114 114 113 112 111 110 107 102 98 94 87 81 80 78 81 89 98 98 102 104 93 86 83 96 101 115 131 122 117 117 113
144 144 140 136 136 136 136 131 124 119 117 114 115 114 114 110 110 108 105 106 100 91 79 75 74 76 78 85 97 100 95 87 90 95 77 105 106 105 123 122 120 118 116
146 143 139 139 139 139 138 133 126 121 120 120 116 115 114 114 114 114 114 107 98 86 72 66 66 67 76 89 91 96 101 81 70 120 99 97 114 120 124 127 123 127 120
151 150 145 143 143 142 139 135 130 126 123 120 117 117 118 118 115 111 110 103 91 78 71 68 72 80 81 75 82 90 80 83 100 134 149 139 125 131 125 128 124 129 121
154 155 152 150 147 144 143 141 137 132 127 123 122 122 121 123 118 114 109 102 86 78 67 61 70 81 71 70 76 80 84 87 113 126 139 144 135 133 134 133 134 121 122
157 157 156 156 154 150 150 147 143 139 136 132 131 129 130 125 113 102 100 94 82 77 69 60 67 73 70 65 59 64 80 118 136 119 136 140 143 141 144 139 132 135 131
158 158 159 160 159 157 153 154 153 150 145 142 142 137 137 127 110 96 86 76 72 71 71 64 62 69 70 67 68 74 95 123 114 146 140 147 152 151 146 147 138 144 143
162 160 160 161 163 161 162 162 163 161 157 156 155 150 144 130 117 99 88 59 52 60 68 73 73 68 69 77 79 55 118 125 134 148 147 155 161 162 158 156 147 151 152
164 163 162 163 167 168 166 172 169 170 173 169 168 168 156 145 128 84 78 28 37 49 74 86 76 67 66 76 116 110 154 342 184 156 163 160 165 167 168 163 156 157 160
167 167 166 167 170 168 175 174 172 178 181 177 180 175 170 179 177 153 94 29 57 83 100 91 67 62 68 61 330 48 165 316 12 154 136 164 169 176 176 172 166 164 171
170 174 173 174 173 175 182 177 179 181 182 184 182 174 189 165 211 187 158 275 93 105 102 83 54 31 37 46 78 60 201 183 145 152 127 168 176 182 187 187 176 174 177
176 176 179 179 178 181 183 182 183 185 186 188 182 175 188 192 187 203 191 129 163 134 109 82 84 8 44 29 35 60 136 164 179 140 158 159 178 192 192 187 185 183 186
173 179 181 181 181 185 186 185 187 192 195 195 193 193 196 202 200 177 163 120 110 168 128 104 182 51 47 340 55 88 100 142 163 154 137 155 168 201 204 195 192 190 193
177 180 183 182 184 188 191 196 199 200 200 196 202 207 208 212 183 177 167 196 224 232 167 126 147 154 358 65 107 84 120 164 180 173 164 153 155 193 209 206 201 195 194
180 184 185 187 188 186 193 199 202 203 204 210 213 214 218 214 198 194 189 221 238 212 187 179 306 297 31 358 348 345 238 217 188 196 189 178 179 183 206 210 214 203 200
185 185 188 189 191 191 198 204 209 220 219 227 234 214 210 208 197 199 210 186 216 235 198 192 57 307 332 17 87 182 259 170 201 185 190 201 190 194 190 201 207 212 216
182 182 188 190 191 195 203 197 197 202 214 204 194 207 207 206 211 221 209 197 180 208 203 284 293 105 64 45 1 357 317 246 192 162 150 181 179 200 185 196 205 206 215
184 186 189 189 193 197 201 197 205 197 188 181 179 198 200 206 211 220 222 209 214 204 245 281 212 123 351 333 70 358 44 151 176 160 158 164 136 202 202 179 191 213 224
188 191 192 192 196 199 203 199 208 211 214 214 214 205 206 205 212 213 214 212 201 210 236 226 183 118 222 2 353 323 125 128 134 143 130 131 112 127 154 181 193 210 215
190 190 191 190 195 198 200 199 202 208 217 221 222 217 210 209 216 219 221 207 201 215 200 177 171 205 233 333 0 322 142 108 137 156 135 130 127 130 142 158 189 173 185
187 190 188 192 196 200 203 205 205 207 211 214 230 227 226 224 224 222 222 217 219 204 202 194 211 177 181 132 184 102 25 89 140 145 134 129 138 128 137 124 117 169 165
186 187 188 194 198 201 203 202 204 208 212 221 224 225 228 231 216 217 219 217 213 216 200 194 188 173 162 140 90 141 88 191 139 159 151 143 144 151 147 132 131 137 153
187 188 188 192 197 198 201 199 199 199 206 218 223 231 236 216 208 214 212 204 209 194 197 200 191 184 183 163 149 121 119 143 151 88 198 163 182 197 190 183 192 174 165
190 189 190 192 195 196 199 199 199 202 212 222 223 228 234 219 213 211 210 204 199 198 195 192 195 198 194 175 181 176 167 164 150 134 198 207 214 220 210 222 208 213 206
192 192 192 190 191 197 197 200 201 205 211 219 221 228 233 218 211 211 208 207 202 191 190 197 198 203 202 197 189 198 182 166 170 141 111 178 231 250 220 218 222 217 221
Height
811 813 814 815 818 820 823 825 826 827 827 827 829 830 832 833 833 835 836 836 836 836 836 836 837 838 838 838 837 837 836 837 837 837 838 838 838 838 838 838 838 838 838
812 814 816 818 819 822 824 826 827 828 829 830 831 833 834 835 835 837 838 838 837 837 837 838 839 839 839 838 837 837 838 838 838 839 839 839 840 839 840 840 840 840 840
813 816 818 820 822 824 825 827 829 830 831 832 834 836 837 837 838 839 840 839 839 839 839 840 840 841 840 838 838 838 839 840 840 840 840 840 841 842 843 843 843 844 844
815 818 820 822 824 825 827 829 831 833 834 835 836 838 839 839 840 840 841 841 841 841 841 841 842 841 840 839 840 840 840 840 841 842 843 843 844 844 844 845 846 846 847
816 819 821 823 825 827 829 831 834 835 836 837 838 840 840 841 842 843 843 843 843 843 843 843 842 841 841 841 841 841 843 842 841 841 843 845 846 845 845 846 848 848 849
817 820 822 825 827 829 831 833 835 836 838 839 840 842 842 843 844 843 843 844 844 845 845 844 843 842 843 843 842 842 844 840 841 841 844 845 846 848 848 848 850 851 851
817 821 823 825 828 830 833 835 836 838 839 841 842 843 844 845 845 845 845 845 845 846 846 845 844 844 844 845 845 845 844 842 840 839 843 844 847 848 849 850 849 852 853
817 821 824 826 829 831 833 835 837 839 841 842 843 844 845 845 845 845 846 846 847 847 847 847 846 846 846 846 846 844 844 842 841 840 842 845 847 848 849 850 850 852 854
818 822 824 827 830 832 834 836 837 840 842 842 843 844 845 845 846 846 846 847 847 848 848 848 847 847 848 848 847 845 843 843 842 843 843 845 848 849 850 851 851 853 855
819 822 824 827 830 832 834 837 839 840 841 842 843 844 845 845 846 846 847 847 847 848 849 848 847 848 848 849 846 842 843 843 842 843 843 844 846 848 850 852 852 854 855
819 821 824 826 829 831 834 837 839 840 840 841 843 844 845 846 846 846 847 847 847 849 849 849 848 848 849 849 846 845 843 842 842 843 844 844 845 849 851 852 852 854 857
817 820 822 825 828 831 834 836 837 838 839 840 842 843 844 845 845 846 846 847 848 849 849 850 849 848 848 848 846 845 843 843 843 844 845 845 847 849 851 853 853 854 857
813 817 820 823 827 829 832 834 836 837 838 838 840 842 843 844 844 845 846 846 847 848 849 849 849 849 848 847 846 845 843 844 844 844 845 846 847 849 851 852 853 855 858
812 814 817 821 825 828 831 832 833 834 836 836 838 841 842 843 844 845 845 846 847 847 847 848 848 848 848 847 846 845 844 844 845 845 845 846 847 848 850 852 853 854 856
808 811 815 819 822 825 828 829 831 833 834 836 837 840 841 842 843 843 844 845 846 846 847 846 846 847 847 846 846 846 844 845 845 845 845 846 847 849 850 851 853 853 855
804 807 811 815 818 822 824 827 829 831 833 835 835 837 840 841 841 842 843 843 844 846 846 846 846 846 846 845 845 845 845 844 843 844 844 846 847 848 849 850 851 853 853
800 802 807 811 816 819 822 825 828 830 831 832 833 836 838 839 840 840 841 842 843 843 844 845 845 845 845 844 844 844 844 843 842 843 844 845 846 847 848 849 851 852 851
796 800 805 810 813 817 819 823 826 827 829 831 831 834 836 838 839 839 840 841 842 843 843 844 844 843 843 843 843 843 841 841 842 843 844 845 845 847 848 849 850 851 852
792 797 801 806 809 813 817 820 823 826 828 828 831 832 834 836 837 839 839 839 840 841 842 842 842 842 842 842 842 841 840 840 841 842 843 844 845 846 848 850 851 852 852
788 792 796 801 805 810 814 818 820 822 825 826 829 830 831 833 835 836 837 837 838 839 840 841 842 842 842 841 840 840 840 841 842 842 843 844 844 844 847 849 850 851 851
784 787 792 797 801 806 810 813 816 818 821 824 826 828 828 830 832 833 835 836 836 837 839 840 840 841 841 840 840 840 840 842 842 842 843 844 844 846 847 848 850 849 848
776 781 786 791 796 801 805 809 813 815 818 820 823 825 827 828 829 831 832 833 834 836 837 838 838 838 839 839 840 840 843 844 843 843 844 844 845 846 847 848 848 848 848
769 773 778 782 789 795 800 805 810 813 816 817 819 821 822 824 826 828 830 831 832 833 834 836 837 837 838 839 838 839 845 847 843 844 845 843 844 845 846 847 847 848 848
759 766 772 777 782 788 794 799 803 806 810 812 815 817 819 820 823 825 827 828 829 830 832 835 836 836 836 836 837 838 838 839 843 846 845 844 845 845 846 848 848 848 848
753 758 764 769 775 780 786 791 797 801 804 808 810 813 815 817 820 822 824 825 826 828 831 834 835 835 836 836 836 835 833 836 839 841 845 844 844 844 845 846 848 848 847
744 751 757 763 768 773 779 785 790 794 799 803 805 808 810 812 816 819 821 822 825 827 829 831 833 833 834 835 836 836 836 835 836 839 842 843 843 842 843 844 845 845 846